Location: Alafon
(8.4500°N, 4.2333°E)
Time: 18:45:16
(UTC+00:00)

A-11 Canister half - Pass Details

Date: 09 August 2021
Orbit: 1515 x 1685 km, 47.2° (Epoch: 19 September)

Event Time Altitude Azimuth Distance (km) Brightness Sun altitude
Rises 13:37:48 0° 255° (WSW) 4,669 11.9 62.4°
Reaches altitude 10° 13:41:39 10° 269° (W) 3,703 11.6 61.5°
Maximum altitude 13:48:41 24° 318° (NW) 2,821 11.3 59.8°
Drops below altitude 10° 13:55:55 10° 8° (N) 3,794 11.3 58.1°
Sets 13:59:59 0° 22° (NNE) 4,809 11.6 57.1°
